Content
SEND FEEDBACK

Daily
Averages
Monthly
Summary
United States of America

HUGHSONVILLE, NEW YORK


Home > North America > United States > New York
Elevation: 173 feet     Latitude: 41 38N     Longitude: 073 55W

WEATHER
 
SELECT A DAY
Number of Records: 196,833;   Date Range: 1/1/95 - 9/28/14
 
SHARE

PRINT THIS DATA

[ ← Previous Day ]
WEATHER ALMANAC - JANUARY 23, 2013
[ Next Day → ]
[ °C ]   °F
Weather ElementAverageHighLow
Temperature12.4 °F19 °F (2:53 pm)5 °F (11:53 pm)
Dewpoint-5.2 °F-0.9 °F (8:53 pm)-8 °F (12:53 pm)
Humidity46.7 %76 % (11:53 pm)30 % (2:53 pm)
Barometer30.18 in30.22 in (9:53 am)30.14 in (12:53 pm)
Wind Speed8.7 mph13.8 mph (9:53 am)
Wind Gust23 mph (12:53 pm)
Weather ElementAverage
Visibility10 mi
Wind DirectionSW (226.1 °)

Weather ElementTotal
Precipitation---
Heating Degree Days53 (Base 65)
Averaged from 23 records on January 23, 2013
WEATHER CONDITIONS BREAKOUT
WIND DIRECTION BREAKOUT
WEATHER BY HOUR - JANUARY 23, 2013
[ °C ]   °F
Local TimeTemperatureDewpointHumidityBarometerVisibilityWind DirectionWind SpeedGust SpeedPrecipitationEventsConditions
1:53 AM10.9 °F-7.1 °F44 %30.16 in10.0 miWest (260°)12.7 mphClear
2:53 AM10.0 °F-6.0 °F48 %30.18 in10.0 miWest (260°)10.4 mphClear
3:53 AM10.0 °F-5.1 °F51 %30.17 in10.0 miWest (260°)11.5 mphClear
4:53 AM9.0 °F-5.1 °F53 %30.18 in10.0 miWest (260°)11.5 mphClear
5:53 AM9.0 °F-5.1 °F53 %30.19 in10.0 miWest (260°)10.4 mphClear
6:53 AM9.0 °F-5.1 °F53 %30.19 in10.0 miWest (260°)10.4 mphClear
7:53 AM9.0 °F-5.1 °F53 %30.20 in10.0 miWSW (250°)11.5 mphClear
8:53 AM10.9 °F-4.0 °F51 %30.21 in10.0 miWSW (250°)12.7 mphClear
9:53 AM12.9 °F-5.1 °F45 %30.22 in10.0 miWSW (240°)13.8 mphClear
10:53 AM15.1 °F-6.0 °F39 %30.21 in10.0 miWest (270°)10.4 mphClear
11:53 AM17.1 °F-6.0 °F36 %30.18 in10.0 miWNW (290°)9.2 mphMostly Cloudy
12:53 PM18.0 °F-8.0 °F31 %30.14 in10.0 miWest (270°)13.8 mph23.0 mphOvercast
1:53 PM18.0 °F-8.0 °F31 %30.14 in10.0 miWest (270°)12.7 mphOvercast
2:53 PM19.0 °F-8.0 °F30 %30.14 in10.0 miWest (260°)13.8 mphOvercast
3:53 PM18.0 °F-8.0 °F31 %30.14 in10.0 miWNW (290°)12.7 mph18.4 mphMostly Cloudy
4:53 PM16.0 °F-6.0 °F38 %30.15 in10.0 miNW (310°)8.1 mphMostly Cloudy
5:53 PM16.0 °F-7.1 °F36 %30.17 in10.0 miVariable4.6 mphOvercast
6:53 PM14.0 °F-5.1 °F43 %30.18 in10.0 miNW (310°)3.5 mphClear
7:53 PM12.0 °F-4.0 °F49 %30.18 in10.0 miWest (280°)3.5 mphClear
8:53 PM10.0 °F-0.9 °F61 %30.17 in10.0 miCalmClear
9:53 PM10.0 °F-2.9 °F56 %30.18 in10.0 miNorth (350°)3.5 mphClear
10:53 PM7.0 °F-2.0 °F67 %30.18 in10.0 miCalmClear
11:53 PM5.0 °F-0.9 °F76 %30.18 in9.0 miCalmClear
Hourly data recorded from KPOU, located miles away from Hughsonville, New York







STORIES FROM OUR PARTNERS